[Iaude] MPEC F96: 2024 FY2 [a=1.55,e=0.25,i=12.3,H=23.6]

mpec at cfa.harvard.edu mpec at cfa.harvard.edu
Thu Mar 28 16:59:59 EDT 2024


M.P.E.C. 2024-F96                                Issued 2024 March 28, 20:58 UT

     The Minor Planet Electronic Circulars contain information on unusual
         minor planets, routine data on comets and natural satellites,
         and occasional editorial announcements.  They are published
    on behalf of Division F of the International Astronomical Union by the
          Minor Planet Center, Smithsonian Astrophysical Observatory,
                          Cambridge, MA 02138, U.S.A.
			  
             Prepared using the Tamkin Foundation Computer Network

                              MPC at CFA.HARVARD.EDU
            URL https://www.minorplanetcenter.net/    ISSN 1523-6714

                                    2024 FY2                                    


Observations:
     K24F02Y* C2024 03 18.48960313 59 59.294+34 19 25.45         22.12wXEF096F52
     K24F02Y  C2024 03 18.50272113 59 58.334+34 19 02.56         22.28wXEF096F52
     K24F02Y  C2024 03 18.51599813 59 57.363+34 18 39.48         22.34wXEF096F52
     K24F02Y  C2024 03 18.61851513 59 49.828+34 15 34.17         21.24GVEF096F51
     K24F02Y  C2024 03 18.61933113 59 49.780+34 15 32.28         21.98GVEF096F51
     K24F02Y 1C2024 03 19.51255913 58 59.487+33 48 29.71         22.09GVEF096T12
     K24F02Y 1C2024 03 19.51595913 58 59.221+33 48 23.49         22.14GVEF096T12
     K24F02Y  C2024 03 19.54863913 58 56.699+33 47 21.96         22.06GVEF096F52
     K24F02Y  C2024 03 19.56113513 58 55.713+33 46 58.30         22.44GVEF096F52
     K24F02Y  C2024 03 19.57360013 58 54.728+33 46 34.69         21.91GVEF096F52
     K24F02Y KC2024 03 28.44229 13 47 23.27 +28 13 53.7          21.6 RVEF096291
     K24F02Y KC2024 03 28.46242 13 47 21.12 +28 12 58.8          21.9 RVEF096291

Observer details:
291 LPL/Spacewatch II.  Observer M. T. Read.  1.8-m f/2.7 reflector + CCD.
F51 Pan-STARRS 1, Haleakala.  Observers J. Herman, T. Lowe, P. Minguez, A.
    Schultz, I. Smith.  Measurers K. Chambers, T. de Boer, J. Fairlamb, H.
    Gao, M. Huber, C.-C. Lin, E. Magnier, Y. Ramanjooloo, R. Wainscoat, R.
    Weryk.  1.8-m Ritchey-Chretien + CCD.
F52 Pan-STARRS 2, Haleakala.  Observers J. Herman, T. Lowe, P. Minguez, A.
    Schultz, I. Smith.  Measurers K. Chambers, T. de Boer, J. Fairlamb, H.
    Gao, M. Huber, C.-C. Lin, E. Magnier, Y. Ramanjooloo, R. Wainscoat, R.
    Weryk.  1.8-m Ritchey-Chretien + CCD.
T12 University of Hawaii 88-inch telescope, Maunakea.  Observer J. Fairlamb.
    Measurers R. Weryk, J. Fairlamb, Y. Ramanjooloo, R. Wainscoat.  2.24-m
    f/10.1 reflector + CCD.

Orbital elements:
2024 FY2                                                 Earth MOID = 0.2045 AU
Epoch 2024 Mar. 31.0 TT = JDT 2460400.5                 MPC                     
M  10.18018              (2000.0)            P               Q                  
n   0.51185383     Peri.  134.87008     -0.98243860     -0.13213290             
a   1.5477664      Node    38.11665     +0.04007090     -0.83899000             
e   0.2456437      Incl.   12.32312     +0.18223259     -0.52786048             
P   1.93           H   23.67          G   0.15           U   8                  
Residuals in seconds of arc
240318 F52  0.2-  0.3-    240318 F51  0.1+  0.1-    240319 F52  0.0   0.0
240318 F52  0.1-  0.3-    240319 T12  0.0   0.1-    240319 F52  0.1-  0.0
240318 F52  0.0   0.0     240319 T12  0.0   0.0     240328 291  0.1-  0.3+
240318 F51  0.1-  0.3+    240319 F52  0.1+  0.1+    240328 291  0.0   0.3-

Ephemeris:
2024 FY2                 a,e,i = 1.55, 0.25, 12                  q = 1.1676
Date    TT    R. A. (2000) Decl.     Delta      r    Elong.  Phase     V
2024 02 27    14 00 42.1 +40 33 20   0.2788  1.1721   124.9    43.9    22.9
...
2024 03 13    14 03 51.0 +36 41 58   0.2407  1.1677   131.6    39.6    22.5
...
2024 03 21    13 57 24.9 +33 00 46   0.2240  1.1702   137.1    35.4    22.2
...
2024 03 27    13 49 35.4 +29 16 02   0.2142  1.1743   142.1    31.5    22.0
2024 03 28    13 48 05.3 +28 33 21   0.2129  1.1751   143.0    30.7    22.0
2024 03 29    13 46 32.4 +27 49 11   0.2116  1.1760   143.9    30.0    21.9
...
2024 04 04    13 36 31.1 +22 53 57   0.2063  1.1826   149.5    25.4    21.8
...
2024 04 12    13 22 32.9 +15 13 49   0.2063  1.1940   156.1    19.9    21.6
...
2024 04 27    13 02 04.2 +00 05 31   0.2321  1.2229   156.6    19.1    21.9

A. U. Tomatic                (C) Copyright 2024 MPC           M.P.E.C. 2024-F96





More information about the Iaude mailing list